Regional Weather Roundup
Issued by NWS Albany, NY

Home | Current Version | Previous Version | Text Only | Print | Product List | Glossary On
Versions: 1 2 3 4 5 6 7 8 9 10 11 12 13 14 15 16 17 18 19 20 21 22 23 24 25 26 27 28 29 30 31 32 33 34 35 36 37 38 39 40 41 42 43 44 45 46 47 48 49 50
000
ASUS41 KALY 300110
RWRALY

NEW YORK STATE HOURLY WEATHER ROUNDUP
NATIONAL WEATHER SERVICE ALBANY NY
900 PM EDT WED JUL 29 2015

NOTE: "FAIR" INDICATES FEW OR NO CLOUDS BELOW 12,000 FEET WITH NO
SIGNIFICANT WEATHER AND/OR NO OBSTRUCTIONS TO VISIBILITY.

NYZ032-033-038>043-046>054-057>066-NYZ062>081-300200-
EAST


CITY           SKY/WX    TMP DP  RH WIND       PRES   REMARKS
ALBANY         PTCLDY    83  63  50 CALM      29.89S
GLENS FALLS    CLEAR     77  65  66 CALM      29.88S
POUGHKEEPSIE   CLEAR     80  67  64 E3        29.89S
NEWBURGH       CLEAR     82  64  54 CALM      29.94R
MONTGOMERY     CLEAR     76  69  79 CALM      29.92S
WHITE PLAINS   CLEAR     80  70  71 S3        29.93R
ISLIP          PTCLDY    79  72  79 SW9       29.92S
NEW YORK CITY  PTCLDY    87  71  58 S13       29.91R HX  93
CENTRAL PARK   CLEAR     86  71  60 VRB3      29.94S HX  91
$$

NYZ005>009-017-018-044>046-055-056-300200-
CENTRAL


CITY           SKY/WX    TMP DP  RH WIND       PRES   REMARKS
FULTON         CLEAR     75  68  78 SE3       29.87S
SYRACUSE       PTCLDY    83  65  54 S6        29.87S
ROME           CLEAR     77  71  82 CALM      29.89F
ELMIRA         CLEAR     75  67  76 CALM      29.91S
BINGHAMTON     CLEAR     76  62  62 SW7       29.96F
MONTICELLO     PTCLDY    79  64  61 S5        29.99S
$$

NYZ026>034-041>043-300200-
NORTH


CITY           SKY/WX    TMP DP  RH WIND       PRES   REMARKS
WATERTOWN      CLEAR     74  69  85 CALM      29.85F
FORT DRUM      NOT AVBL
MASSENA        CLEAR     77  64  64 SW6       29.85S
SARANAC LAKE   CLEAR     71  65  81 CALM      29.93S
PLATTSBURGH    PTCLDY    72  71  97 CALM      29.85S
$$

NYZ001>004-010>016-019>021-300200-
WEST


CITY           SKY/WX    TMP DP  RH WIND       PRES   REMARKS
NIAGARA FALLS  MOCLDY    81  64  56 SW8       29.85F
BUFFALO        MOCLDY    82  63  52 SW9       29.87F
DUNKIRK        MOCLDY    77  70  79 S5        29.89F
JAMESTOWN      MOCLDY    75  64  69 NW5       29.96F
WELLSVILLE     PTCLDY    77  66  68 S6        30.00R
ROCHESTER      MOCLDY    81  66  60 SW3       29.86F
PENN YAN       CLEAR     79  66  64 S5        29.91S
$$

             KEY
       WCI = WIND CHILL INDEX
       VSB = VISIBILITY
       HX  = HEAT INDEX
$$


USA.gov is the U.S. government's official web portal to all federal, state and local government web resources and services.